2022-07-23 00:05:43 r, 19.44m,0000000001Hz,0000325542c,0000000.706s, 031.9C,00002191
2022-07-23 00:15:46 r, 19.48m,0000000001Hz,0000335909c,0000000.729s, 032.2C,00002191
2022-07-23 00:25:43 r, 19.42m,0000000001Hz,0000319596c,0000000.694s, 032.2C,00002191
2022-07-23 00:35:45 r, 19.52m,0000000002Hz,0000348619c,0000000.757s, 032.2C,00002191
2022-07-23 00:45:44 r, 19.18m,0000000002Hz,0000254532c,0000000.552s, 031.9C,00002191
2022-07-23 00:55:43 r, 19.17m,0000000001Hz,0000253459c,0000000.550s, 031.5C,00002191
2022-07-23 01:05:46 r, 19.23m,0000000002Hz,0000266871c,0000000.579s, 031.2C,00002191
2022-07-23 01:15:44 r, 19.36m,0000000001Hz,0000301526c,0000000.654s, 031.2C,00002191
2022-07-23 01:25:43 r, 19.40m,0000000001Hz,0000311969c,0000000.677s, 031.2C,00002191
2022-07-23 01:35:46 r, 19.54m,0000000001Hz,0000355234c,0000000.771s, 031.2C,00002191
2022-07-23 01:45:44 r, 19.64m,0000000001Hz,0000391578c,0000000.850s, 030.9C,00002191
2022-07-23 01:55:43 r, 19.92m,0000000001Hz,0000508001c,0000001.102s, 030.9C,00002191
2022-07-23 02:05:44 r, 19.93m,0000000001Hz,0000508749c,0000001.104s, 030.9C,00002191
2022-07-23 02:15:45 r, 20.11m,0000000001Hz,0000602875c,0000001.308s, 030.6C,00002191
2022-07-23 02:25:43 r, 20.34m,0000000001Hz,0000742840c,0000001.612s, 030.6C,00002191
2022-07-23 02:35:43 r, 20.31m,0000000001Hz,0000725662c,0000001.575s, 030.2C,00002191
2022-07-23 02:45:46 r, 20.19m,0000000001Hz,0000651025c,0000001.413s, 030.2C,00002191
2022-07-23 02:55:43 r, 20.23m,0000000001Hz,0000673964c,0000001.463s, 030.2C,00002191
2022-07-23 03:05:46 r, 20.54m,0000000001Hz,0000893702c,0000001.939s, 029.9C,00002191
2022-07-23 03:15:44 r, 20.64m,0000000001Hz,0000976578c,0000002.119s, 029.6C,00002191
2022-07-23 03:25:43 r, 20.76m,0000000001Hz,0001094989c,0000002.376s, 029.6C,00002191
2022-07-23 03:35:46 r, 20.72m,0000000001Hz,0001055143c,0000002.290s, 029.6C,00002191
2022-07-23 03:45:44 r, 20.69m,0000000001Hz,0001017622c,0000002.208s, 029.3C,00002191
2022-07-23 03:55:43 r, 20.47m,0000000000Hz,0000840965c,0000001.825s, 029.3C,00002191
2022-07-23 04:05:44 r, 20.04m,0000000001Hz,0000569287c,0000001.235s, 029.0C,00002191
2022-07-23 04:15:45 r, 19.32m,0000000002Hz,0000294700c,0000000.640s, 029.0C,00002191
2022-07-23 04:25:43 r, 18.67m,0000000003Hz,0000161127c,0000000.350s, 029.0C,00002191
2022-07-23 04:35:43 r, 18.14m,0000000004Hz,0000098808c,0000000.214s, 029.0C,00002191
2022-07-23 04:45:46 r, 17.05m,0000000013Hz,0000036380c,0000000.079s, 029.0C,00002191
2022-07-23 04:55:43 r, 15.83m,0000000039Hz,0000011794c,0000000.026s, 029.0C,00002191
2022-07-23 05:05:45 r, 14.29m,0000000163Hz,0000000000c,0000000.000s, 029.0C,00002191
2022-07-23 05:15:44 r, 12.58m,0000000786Hz,0000000000c,0000000.000s, 029.0C,00002191
2022-07-23 05:25:43 r, 11.02m,0000003300Hz,0000000000c,0000000.000s, 029.0C,00002191
2022-07-23 05:35:46 r, 09.58m,0000012419Hz,0000000000c,0000000.000s, 029.0C,00002191
2022-07-23 05:45:44 r, 08.71m,0000027814Hz,0000000000c,0000000.000s, 029.0C,00002191
2022-07-23 05:55:43 r, 07.87m,0000060265Hz,0000000000c,0000000.000s, 029.0C,00002191
2022-07-23 06:05:46 r, 06.83m,0000157378Hz,0000000000c,0000000.000s, 029.0C,00002191
2022-07-23 06:15:44 r, 07.15m,0000116332Hz,0000000000c,0000000.000s, 029.0C,00002191
2022-07-23 06:25:43 r, 06.81m,0000160028Hz,0000000000c,0000000.000s, 029.0C,00002191
2022-07-23 06:35:43 r, 00.00m,0000458425Hz,0000000000c,0000000.000s, 029.3C,00002191
2022-07-23 06:45:44 r, 00.00m,0000596302Hz,0000000000c,0000000.000s, 029.6C,00002191
2022-07-23 06:55:43 r, 00.00m,0000570876Hz,0000000000c,0000000.000s, 030.9C,00002191
2022-07-23 07:05:43 r, 00.00m,0000435516Hz,0000000000c,0000000.000s, 031.2C,00002191
2022-07-23 07:15:46 r, 00.00m,0000596093Hz,0000000000c,0000000.000s, 031.2C,00002191
2022-07-23 07:25:43 r, 00.00m,0000596048Hz,0000000000c,0000000.000s, 031.5C,00002191
2022-07-23 07:35:44 r, 00.00m,0000596157Hz,0000000000c,0000000.000s, 031.9C,00002191
2022-07-23 07:45:44 r, 00.00m,0000595989Hz,0000000000c,0000000.000s, 032.5C,00002191
2022-07-23 07:55:43 r, 00.00m,0000595700Hz,0000000000c,0000000.000s, 034.1C,00002191
2022-07-23 08:05:44 r, 00.00m,0000595521Hz,0000000000c,0000000.000s, 036.0C,00002191
2022-07-23 08:15:44 r, 00.00m,0000595497Hz,0000000000c,0000000.000s, 036.4C,00002191
2022-07-23 08:25:44 r, 00.00m,0000595485Hz,0000000000c,0000000.000s, 036.4C,00002191
2022-07-23 08:35:44 r, 00.00m,0000595505Hz,0000000000c,0000000.000s, 036.4C,00002191
2022-07-23 08:45:45 r, 00.00m,0000595423Hz,0000000000c,0000000.000s, 035.7C,00002191
2022-07-23 08:55:44 r, 00.00m,0000595561Hz,0000000000c,0000000.000s, 035.1C,00002191
2022-07-23 09:05:44 r, 00.00m,0000595660Hz,0000000000c,0000000.000s, 034.8C,00002191
2022-07-23 09:15:46 r, 00.00m,0000595749Hz,0000000000c,0000000.000s, 034.4C,00002191
2022-07-23 09:25:44 r, 00.00m,0000595596Hz,0000000000c,0000000.000s, 034.8C,00002191
2022-07-23 09:35:44 r, 00.00m,0000595602Hz,0000000000c,0000000.000s, 035.4C,00002191
2022-07-23 09:45:46 r, 00.00m,0000595610Hz,0000000000c,0000000.000s, 035.4C,00002191
2022-07-23 09:55:44 r, 00.00m,0000595530Hz,0000000000c,0000000.000s, 035.4C,00002191
2022-07-23 10:05:44 r, 00.00m,0000595557Hz,0000000000c,0000000.000s, 035.7C,00002191
2022-07-23 10:15:44 r, 00.00m,0000595554Hz,0000000000c,0000000.000s, 035.7C,00002191
2022-07-23 10:25:45 r, 00.00m,0000595464Hz,0000000000c,0000000.000s, 036.4C,00002191
2022-07-23 10:35:44 r, 00.00m,0000595238Hz,0000000000c,0000000.000s, 037.7C,00002191
2022-07-23 10:45:45 r, 00.00m,0000595031Hz,0000000000c,0000000.000s, 039.0C,00002191
2022-07-23 10:55:45 r, 00.00m,0000595134Hz,0000000000c,0000000.000s, 038.6C,00002191
2022-07-23 11:05:44 r, 00.00m,0000595203Hz,0000000000c,0000000.000s, 038.3C,00002191
2022-07-23 11:15:46 r, 00.00m,0000595358Hz,0000000000c,0000000.000s, 037.0C,00002191
2022-07-23 11:25:44 r, 00.00m,0000595313Hz,0000000000c,0000000.000s, 037.0C,00002191
2022-07-23 11:35:44 r, 00.00m,0000595215Hz,0000000000c,0000000.000s, 037.7C,00002191
2022-07-23 11:45:46 r, 00.00m,0000595183Hz,0000000000c,0000000.000s, 038.3C,00002191
2022-07-23 11:55:44 r, 00.00m,0000594990Hz,0000000000c,0000000.000s, 039.6C,00002191
2022-07-23 12:05:44 r, 00.00m,0000594862Hz,0000000000c,0000000.000s, 039.9C,00002191
2022-07-23 12:15:44 r, 00.00m,0000595209Hz,0000000000c,0000000.000s, 038.6C,00002191
2022-07-23 12:25:45 r, 00.00m,0000595386Hz,0000000000c,0000000.000s, 036.7C,00002191
2022-07-23 12:35:44 r, 00.00m,0000595569Hz,0000000000c,0000000.000s, 035.4C,00002191
2022-07-23 12:45:45 r, 00.00m,0000595508Hz,0000000000c,0000000.000s, 035.4C,00002191
2022-07-23 12:55:45 r, 00.00m,0000595393Hz,0000000000c,0000000.000s, 035.4C,00002191
2022-07-23 13:05:44 r, 00.00m,0000595521Hz,0000000000c,0000000.000s, 035.4C,00002191
2022-07-23 13:15:44 r, 00.00m,0000594950Hz,0000000000c,0000000.000s, 039.3C,00002191
2022-07-23 13:25:46 r, 00.00m,0000594717Hz,0000000000c,0000000.000s, 040.9C,00002191
2022-07-23 13:35:44 r, 00.00m,0000593983Hz,0000000000c,0000000.000s, 044.4C,00002191
2022-07-23 13:45:46 r, 00.00m,0000593548Hz,0000000000c,0000000.000s, 047.3C,00002191
2022-07-23 13:55:45 r, 00.00m,0000593461Hz,0000000000c,0000000.000s, 048.3C,00002191
2022-07-23 14:05:44 r, 00.00m,0000593203Hz,0000000000c,0000000.000s, 049.9C,00002191
2022-07-23 14:15:45 r, 00.00m,0000593014Hz,0000000000c,0000000.000s, 050.9C,00002191
2022-07-23 14:25:45 r, 00.00m,0000592997Hz,0000000000c,0000000.000s, 051.5C,00002191
2022-07-23 14:35:44 r, 00.00m,0000592929Hz,0000000000c,0000000.000s, 052.2C,00002191
2022-07-23 14:45:44 r, 00.00m,0000592781Hz,0000000000c,0000000.000s, 051.8C,00002191
2022-07-23 14:55:46 r, 00.00m,0000593638Hz,0000000000c,0000000.000s, 048.0C,00002191
2022-07-23 15:05:44 r, 00.00m,0000593507Hz,0000000000c,0000000.000s, 048.0C,00002191
2022-07-23 15:15:45 r, 00.00m,0000593388Hz,0000000000c,0000000.000s, 048.9C,00002191
2022-07-23 15:25:45 r, 00.00m,0000593158Hz,0000000000c,0000000.000s, 050.2C,00002191
2022-07-23 15:35:44 r, 00.00m,0000593339Hz,0000000000c,0000000.000s, 048.9C,00002191
2022-07-23 15:45:46 r, 00.00m,0000593155Hz,0000000000c,0000000.000s, 049.6C,00002191
2022-07-23 15:55:45 r, 00.00m,0000593506Hz,0000000000c,0000000.000s, 048.3C,00002191
2022-07-23 16:05:44 r, 00.00m,0000593205Hz,0000000000c,0000000.000s, 048.9C,00002191
2022-07-23 16:15:46 r, 00.00m,0000593281Hz,0000000000c,0000000.000s, 048.9C,00002191
2022-07-23 16:25:45 r, 00.00m,0000593197Hz,0000000000c,0000000.000s, 049.6C,00002191
2022-07-23 16:35:44 r, 00.00m,0000593925Hz,0000000000c,0000000.000s, 046.7C,00002191
2022-07-23 16:45:45 r, 00.00m,0000593788Hz,0000000000c,0000000.000s, 046.0C,00002191
2022-07-23 16:55:46 r, 00.00m,0000593535Hz,0000000000c,0000000.000s, 047.3C,00002191
2022-07-23 17:05:44 r, 00.00m,0000593563Hz,0000000000c,0000000.000s, 047.3C,00002191
2022-07-23 17:15:45 r, 00.00m,0000593696Hz,0000000000c,0000000.000s, 047.0C,00002191
2022-07-23 17:25:45 r, 00.00m,0000593650Hz,0000000000c,0000000.000s, 046.4C,00002191
2022-07-23 17:35:44 r, 00.00m,0000593789Hz,0000000000c,0000000.000s, 046.0C,00002191
2022-07-23 17:45:46 r, 00.00m,0000593837Hz,0000000000c,0000000.000s, 045.4C,00002191
2022-07-23 17:55:45 r, 00.00m,0000594057Hz,0000000000c,0000000.000s, 044.8C,00002191
2022-07-23 18:05:44 r, 00.00m,0000594058Hz,0000000000c,0000000.000s, 044.1C,00002191
2022-07-23 18:15:46 r, 00.00m,0000594181Hz,0000000000c,0000000.000s, 043.1C,00002191
2022-07-23 18:25:45 r, 00.00m,0000594264Hz,0000000000c,0000000.000s, 042.8C,00002191
2022-07-23 18:35:44 r, 00.00m,0000594356Hz,0000000000c,0000000.000s, 042.2C,00002191
2022-07-23 18:45:45 r, 00.00m,0000594475Hz,0000000000c,0000000.000s, 041.5C,00002191
2022-07-23 18:55:45 r, 00.00m,0000594639Hz,0000000000c,0000000.000s, 040.2C,00002191
2022-07-23 19:05:44 r, 00.00m,0000594719Hz,0000000000c,0000000.000s, 039.6C,00002191
2022-07-23 19:15:44 r, 00.00m,0000594887Hz,0000000000c,0000000.000s, 039.0C,00002191
2022-07-23 19:25:47 r, 00.00m,0000594988Hz,0000000000c,0000000.000s, 038.0C,00002191
2022-07-23 19:35:44 r, 00.00m,0000595181Hz,0000000000c,0000000.000s, 036.7C,00002191
2022-07-23 19:45:47 r, 00.00m,0000595295Hz,0000000000c,0000000.000s, 035.4C,00002191
2022-07-23 19:55:45 r, 00.00m,0000508732Hz,0000000000c,0000000.000s, 034.8C,00002191
2022-07-23 20:05:44 r, 00.00m,0000420700Hz,0000000000c,0000000.000s, 033.5C,00002191
2022-07-23 20:15:47 r, 00.00m,0000448699Hz,0000000000c,0000000.000s, 032.5C,00002191
2022-07-23 20:25:45 r, 00.00m,0000477637Hz,0000000000c,0000000.000s, 032.2C,00002191
2022-07-23 20:35:44 r, 00.00m,0000473375Hz,0000000000c,0000000.000s, 031.9C,00002191
2022-07-23 20:45:45 r, 06.14m,0000296415Hz,0000000000c,0000000.000s, 031.9C,00002191
2022-07-23 20:55:46 r, 06.69m,0000177262Hz,0000000000c,0000000.000s, 032.2C,00002191
2022-07-23 21:05:44 r, 07.27m,0000104915Hz,0000000000c,0000000.000s, 031.5C,00002191
2022-07-23 21:15:44 r, 07.91m,0000057820Hz,0000000000c,0000000.000s, 030.6C,00002191
2022-07-23 21:25:47 r, 08.75m,0000026719Hz,0000000000c,0000000.000s, 029.9C,00002191
2022-07-23 21:35:44 r, 09.85m,0000009756Hz,0000000000c,0000000.000s, 029.6C,00002191
2022-07-23 21:45:46 r, 11.26m,0000002667Hz,0000000000c,0000000.000s, 029.3C,00002191
2022-07-23 21:55:45 r, 12.89m,0000000593Hz,0000000000c,0000000.000s, 028.6C,00002191
2022-07-23 22:05:44 r, 14.53m,0000000130Hz,0000000000c,0000000.000s, 028.6C,00002191
2022-07-23 22:15:47 r, 16.20m,0000000028Hz,0000016556c,0000000.036s, 028.3C,00002191
2022-07-23 22:25:45 r, 17.57m,0000000008Hz,0000058583c,0000000.127s, 028.0C,00002191
2022-07-23 22:35:44 r, 18.68m,0000000002Hz,0000162323c,0000000.352s, 028.0C,00002191
2022-07-23 22:45:47 r, 19.61m,0000000002Hz,0000380164c,0000000.825s, 027.7C,00002191
2022-07-23 22:55:45 r, 20.27m,0000000000Hz,0000700801c,0000001.521s, 027.7C,00002191
2022-07-23 23:05:44 r, 20.75m,0000000001Hz,0001073655c,0000002.330s, 027.7C,00002191
2022-07-23 23:15:44 r, 21.04m,0000000000Hz,0001393643c,0000003.024s, 027.3C,00002191
2022-07-23 23:25:47 r, 21.17m,0000000000Hz,0001578578c,0000003.426s, 027.3C,00002191
2022-07-23 23:35:44 r, 21.19m,0000000001Hz,0001611886c,0000003.498s, 027.0C,00002191
2022-07-23 23:45:44 r, 21.20m,0000000000Hz,0001622986c,0000003.522s, 027.0C,00002191
2022-07-23 23:55:47 r, 21.20m,0000000001Hz,0001620430c,0000003.517s, 026.7C,00002191
